This is the latest recevied weather packets stored in our database for station/object WC4PEM-11. If no packets are shown the sender has not sent any weather packets the latest 10 day(s).
| Time | Temp. | Humidity | Pressure | Rain* | Wind** | Luminosity | Snow |
|---|---|---|---|---|---|---|---|
| 1777235007 | 28.89° C | 61% | 1010.4 hPa | 0 mm | - | - | - |
| 1777234707 | 28.89° C | 59% | 1010.5 hPa | 0 mm | - | - | - |
| 1777234407 | 29.44° C | 58% | 1010.5 hPa | 0 mm | - | - | - |
| 1777234107 | 29.44° C | 59% | 1010.4 hPa | 0 mm | - | - | - |
| 1777233807 | 29.44° C | 61% | 1010.6 hPa | 0 mm | - | - | - |
| 1777233507 | 28.89° C | 59% | 1010.7 hPa | 0 mm | - | - | - |
| 1777233207 | 28.89° C | 62% | 1010.5 hPa | 0 mm | - | - | - |
| 1777232907 | 28.89° C | 61% | 1010.8 hPa | 0 mm | - | - | - |
| 1777232607 | 28.89° C | 61% | 1010.7 hPa | 0 mm | - | - | - |
| 1777232307 | 28.89° C | 60% | 1010.6 hPa | 0 mm | - | - | - |
| 1777232097 | 29.44° C | 60% | 1010.7 hPa | 0 mm | - | - | - |
| 1777232007 | 29.44° C | 59% | 1010.7 hPa | 0 mm | - | - | - |
| 1777231707 | 29.44° C | 61% | 1010.7 hPa | 0 mm | - | - | - |
| 1777231407 | 29.44° C | 60% | 1010.7 hPa | 0 mm | - | - | - |
| 1777231314 | 29.44° C | 59% | 1010.6 hPa | 0 mm | - | - | - |
| 1777231203 | 30° C | 58% | 1010.8 hPa | 0 mm | - | - | - |
| 1777231107 | 30° C | 58% | 1010.8 hPa | 0 mm | - | - | - |
| 1777230807 | 29.44° C | 59% | 1010.6 hPa | 0 mm | - | - | - |
| 1777230507 | 29.44° C | 60% | 1010.7 hPa | 0 mm | - | - | - |
| 1777230207 | 29.44° C | 58% | 1010.7 hPa | 0 mm | - | - | - |
| 1777229907 | 30° C | 58% | 1010.8 hPa | 0 mm | - | - | - |
| 1777229607 | 30° C | 57% | 1010.9 hPa | 0 mm | - | - | - |
| 1777229307 | 30.56° C | 57% | 1010.8 hPa | 0 mm | - | - | - |
| 1777229007 | 30.56° C | 54% | 1010.8 hPa | 0 mm | - | - | - |
| 1777228707 | 30° C | 57% | 1010.7 hPa | 0 mm | - | - | - |
* Rain latest hour (hover to see other rain measurements)
** Current wind speed in m/s (hover to see current wind gust speed)